Time,TemperatureF,DewpointF,PressureIn,WindDirection,WindDirectionDegrees,WindSpeedMPH,WindSpeedGustMPH,Humidity,HourlyPrecipIn,Conditions,Clouds,dailyrainin,SoftwareType,DateUTC
2013-10-12 00:01:00,64.4,59.2,29.87,NNW,341,3.0,9.0,83,0.00,,,0.01,WUHU216DAVISVP2,2013-10-12 05:01:00,
2013-10-12 00:06:00,64.3,59.1,29.87,NNW,339,4.0,9.0,83,0.00,,,0.00,WUHU216DAVISVP2,2013-10-12 05:06:00,
2013-10-12 00:11:00,64.2,59.0,29.87,NNW,341,5.0,9.0,83,0.00,,,0.00,WUHU216DAVISVP2,2013-10-12 05:11:00,
2013-10-12 00:16:00,64.0,59.1,29.87,NNW,336,4.0,8.0,84,0.00,,,0.00,WUHU216DAVISVP2,2013-10-12 05:16:00,
2013-10-12 00:21:00,63.9,59.0,29.87,NNW,345,1.0,8.0,84,0.00,,,0.00,WUHU216DAVISVP2,2013-10-12 05:21:00,
2013-10-12 00:26:00,63.8,58.9,29.87,North,351,4.0,8.0,84,0.00,,,0.00,WUHU216DAVISVP2,2013-10-12 05:26:00,
2013-10-12 00:31:00,63.6,58.7,29.88,NNW,337,1.0,8.0,84,0.00,,,0.00,WUHU216DAVISVP2,2013-10-12 05:31:00,
2013-10-12 00:36:00,63.6,59.0,29.87,NNW,338,5.0,8.0,85,0.00,,,0.00,WUHU216DAVISVP2,2013-10-12 05:36:00,
2013-10-12 00:41:00,63.5,58.9,29.88,NNW,339,3.0,8.0,85,0.00,,,0.00,WUHU216DAVISVP2,2013-10-12 05:41:00,
2013-10-12 00:46:00,63.3,58.7,29.88,NNW,329,5.0,8.0,85,0.00,,,0.00,WUHU216DAVISVP2,2013-10-12 05:46:00,
2013-10-12 00:51:00,63.2,58.6,29.88,NNW,345,3.0,8.0,85,0.00,,,0.00,WUHU216DAVISVP2,2013-10-12 05:51:00,
2013-10-12 00:56:00,63.1,58.5,29.88,NNW,345,2.0,7.0,85,0.00,,,0.00,WUHU216DAVISVP2,2013-10-12 05:56:00,
2013-10-12 01:01:00,63.0,58.7,29.88,NNW,345,5.0,7.0,86,0.00,,,0.00,WUHU216DAVISVP2,2013-10-12 06:01:00,
2013-10-12 01:06:00,63.0,58.8,29.88,NNW,342,1.0,9.0,86,0.00,,,0.00,WUHU216DAVISVP2,2013-10-12 06:06:00,
2013-10-12 01:11:00,62.9,58.7,29.87,NNW,343,2.0,9.0,86,0.00,,,0.00,WUHU216DAVISVP2,2013-10-12 06:11:00,
2013-10-12 01:16:00,62.8,58.6,29.87,NNW,335,6.0,9.0,86,0.00,,,0.00,WUHU216DAVISVP2,2013-10-12 06:16:00,
2013-10-12 01:21:00,62.8,58.6,29.87,NNW,339,2.0,9.0,86,0.00,,,0.00,WUHU216DAVISVP2,2013-10-12 06:21:00,
2013-10-12 01:26:00,62.7,58.5,29.87,NNW,342,3.0,9.0,86,0.00,,,0.00,WUHU216DAVISVP2,2013-10-12 06:26:00,
2013-10-12 01:31:00,62.6,58.7,29.87,NNW,347,4.0,9.0,87,0.00,,,0.00,WUHU216DAVISVP2,2013-10-12 06:31:00,
2013-10-12 01:36:00,62.5,58.6,29.87,NNW,348,6.0,9.0,87,0.00,,,0.00,WUHU216DAVISVP2,2013-10-12 06:36:00,
2013-10-12 01:41:00,62.4,58.5,29.87,NNW,348,1.0,9.0,87,0.00,,,0.00,WUHU216DAVISVP2,2013-10-12 06:41:00,
2013-10-12 01:46:00,62.4,58.5,29.87,NNW,338,5.0,10.0,87,0.00,,,0.00,WUHU216DAVISVP2,2013-10-12 06:46:00,
2013-10-12 01:51:00,62.3,58.4,29.87,NNW,339,4.0,10.0,87,0.00,,,0.00,WUHU216DAVISVP2,2013-10-12 06:51:00,
2013-10-12 01:56:00,62.3,58.4,29.87,NNW,339,7.0,10.0,87,0.00,,,0.00,WUHU216DAVISVP2,2013-10-12 06:56:00,
2013-10-12 02:01:00,62.3,58.3,29.87,NNW,338,3.0,10.0,87,0.00,,,0.00,WUHU216DAVISVP2,2013-10-12 07:01:00,
2013-10-12 02:06:00,62.3,58.3,29.87,NNW,342,7.0,10.0,87,0.00,,,0.00,WUHU216DAVISVP2,2013-10-12 07:06:00,
2013-10-12 02:11:00,62.2,58.6,29.87,NNW,333,7.0,10.0,88,0.00,,,0.00,WUHU216DAVISVP2,2013-10-12 07:11:00,
2013-10-12 02:16:00,62.1,58.5,29.87,NNW,335,1.0,9.0,88,0.00,,,0.00,WUHU216DAVISVP2,2013-10-12 07:16:00,
2013-10-12 02:21:00,62.0,58.4,29.87,NW,326,2.0,9.0,88,0.00,,,0.00,WUHU216DAVISVP2,2013-10-12 07:21:00,
2013-10-12 02:26:00,62.0,58.4,29.87,NNW,329,6.0,9.0,88,0.00,,,0.00,WUHU216DAVISVP2,2013-10-12 07:26:00,
2013-10-12 02:31:00,62.0,58.7,29.87,NW,320,6.0,9.0,89,0.00,,,0.00,WUHU216DAVISVP2,2013-10-12 07:31:00,
2013-10-12 02:36:00,61.9,58.6,29.87,NW,324,4.0,9.0,89,0.00,,,0.00,WUHU216DAVISVP2,2013-10-12 07:36:00,
2013-10-12 02:41:00,61.9,58.6,29.86,NNW,341,7.0,9.0,89,0.00,,,0.00,WUHU216DAVISVP2,2013-10-12 07:41:00,
2013-10-12 02:46:00,61.9,58.6,29.87,NNW,331,1.0,9.0,89,0.00,,,0.00,WUHU216DAVISVP2,2013-10-12 07:46:00,
2013-10-12 02:51:00,61.8,58.5,29.86,NW,310,6.0,9.0,89,0.00,,,0.00,WUHU216DAVISVP2,2013-10-12 07:51:00,
2013-10-12 02:56:00,61.8,58.5,29.86,NNW,339,2.0,9.0,89,0.00,,,0.00,WUHU216DAVISVP2,2013-10-12 07:56:00,
2013-10-12 03:01:00,61.7,58.4,29.86,NW,318,1.0,10.0,89,0.00,,,0.00,WUHU216DAVISVP2,2013-10-12 08:01:00,
2013-10-12 03:06:00,61.7,58.4,29.86,NNW,337,5.0,10.0,89,0.00,,,0.00,WUHU216DAVISVP2,2013-10-12 08:06:00,
2013-10-12 03:11:00,61.6,58.6,29.86,NNW,329,4.0,10.0,90,0.00,,,0.00,WUHU216DAVISVP2,2013-10-12 08:11:00,
2013-10-12 03:16:00,61.7,58.7,29.86,NNW,336,1.0,9.0,90,0.00,,,0.00,WUHU216DAVISVP2,2013-10-12 08:16:00,
2013-10-12 03:21:00,61.7,58.7,29.87,NNW,337,1.0,9.0,90,0.00,,,0.00,WUHU216DAVISVP2,2013-10-12 08:21:00,
2013-10-12 03:26:00,61.7,58.7,29.87,NNW,333,1.0,8.0,90,0.00,,,0.00,WUHU216DAVISVP2,2013-10-12 08:26:00,
2013-10-12 03:31:00,61.7,58.7,29.87,NNW,337,2.0,8.0,90,0.00,,,0.00,WUHU216DAVISVP2,2013-10-12 08:31:00,
2013-10-12 03:36:00,61.8,58.8,29.88,NNW,337,0.0,8.0,90,0.00,,,0.00,WUHU216DAVISVP2,2013-10-12 08:36:00,
2013-10-12 03:41:00,61.9,58.9,29.88,NNW,337,0.0,6.0,90,0.00,,,0.00,WUHU216DAVISVP2,2013-10-12 08:41:00,
2013-10-12 03:46:00,61.9,58.9,29.87,NNW,337,1.0,6.0,90,0.00,,,0.00,WUHU216DAVISVP2,2013-10-12 08:46:00,
2013-10-12 03:51:00,61.9,58.9,29.88,NNW,336,2.0,6.0,90,0.00,,,0.00,WUHU216DAVISVP2,2013-10-12 08:51:00,
2013-10-12 03:56:00,62.0,59.0,29.88,NNW,329,5.0,6.0,90,0.00,,,0.00,WUHU216DAVISVP2,2013-10-12 08:56:00,
2013-10-12 04:01:00,62.0,59.1,29.88,NNW,329,1.0,6.0,90,0.00,,,0.00,WUHU216DAVISVP2,2013-10-12 09:01:00,
2013-10-12 04:06:00,62.1,59.1,29.88,WNW,297,4.0,6.0,90,0.00,,,0.00,WUHU216DAVISVP2,2013-10-12 09:06:00,
2013-10-12 04:11:00,62.2,59.2,29.88,SSW,203,2.0,10.0,90,0.00,,,0.00,WUHU216DAVISVP2,2013-10-12 09:11:00,
2013-10-12 04:16:00,62.4,59.4,29.88,SW,217,7.0,11.0,90,0.00,,,0.00,WUHU216DAVISVP2,2013-10-12 09:16:00,
2013-10-12 04:21:00,62.6,59.6,29.89,WSW,239,4.0,11.0,90,0.00,,,0.00,WUHU216DAVISVP2,2013-10-12 09:21:00,
2013-10-12 04:26:00,62.9,59.9,29.89,West,260,0.0,10.0,90,0.00,,,0.00,WUHU216DAVISVP2,2013-10-12 09:26:00,
2013-10-12 04:31:00,63.0,59.7,29.90,SW,225,0.0,10.0,89,0.00,,,0.00,WUHU216DAVISVP2,2013-10-12 09:31:00,
2013-10-12 04:36:00,63.2,59.9,29.89,SW,226,2.0,7.0,89,0.00,,,0.00,WUHU216DAVISVP2,2013-10-12 09:36:00,
2013-10-12 04:41:00,63.4,60.1,29.91,SSW,192,3.0,7.0,89,0.00,,,0.00,WUHU216DAVISVP2,2013-10-12 09:41:00,
2013-10-12 04:46:00,63.6,60.3,29.93,SE,141,4.0,10.0,89,0.00,,,0.00,WUHU216DAVISVP2,2013-10-12 09:46:00,
2013-10-12 04:51:00,63.7,60.4,29.93,SSE,157,4.0,13.0,89,0.00,,,0.00,WUHU216DAVISVP2,2013-10-12 09:51:00,
2013-10-12 04:56:00,63.5,58.0,29.94,ESE,104,8.0,26.0,82,0.00,,,0.00,WUHU216DAVISVP2,2013-10-12 09:56:00,
2013-10-12 05:01:00,62.7,57.8,29.94,South,184,6.0,26.0,84,0.00,,,0.00,WUHU216DAVISVP2,2013-10-12 10:01:00,
2013-10-12 05:06:00,61.9,57.3,29.95,SE,142,10.0,25.0,85,0.00,,,0.00,WUHU216DAVISVP2,2013-10-12 10:06:00,
2013-10-12 05:11:00,61.2,57.0,29.95,South,178,15.0,25.0,86,0.02,,,0.02,WUHU216DAVISVP2,2013-10-12 10:11:00,
2013-10-12 05:16:00,60.5,56.9,29.95,South,183,4.0,22.0,88,0.06,,,0.06,WUHU216DAVISVP2,2013-10-12 10:16:00,
2013-10-12 05:21:00,59.9,56.9,29.95,South,183,5.0,20.0,90,0.06,,,0.06,WUHU216DAVISVP2,2013-10-12 10:21:00,
2013-10-12 05:26:00,59.5,56.9,29.95,SW,214,11.0,15.0,91,0.08,,,0.08,WUHU216DAVISVP2,2013-10-12 10:26:00,
2013-10-12 05:31:00,59.2,56.9,29.94,SW,232,8.0,14.0,92,0.08,,,0.08,WUHU216DAVISVP2,2013-10-12 10:31:00,
2013-10-12 05:36:00,59.2,56.8,29.94,WSW,242,8.0,14.0,92,0.08,,,0.08,WUHU216DAVISVP2,2013-10-12 10:36:00,
2013-10-12 05:41:00,59.0,56.7,29.94,WSW,248,5.0,14.0,92,0.08,,,0.08,WUHU216DAVISVP2,2013-10-12 10:41:00,
2013-10-12 05:46:00,59.0,56.7,29.94,WSW,237,2.0,12.0,92,0.08,,,0.08,WUHU216DAVISVP2,2013-10-12 10:46:00,
2013-10-12 05:51:00,59.1,56.7,29.95,WSW,237,7.0,12.0,92,0.08,,,0.08,WUHU216DAVISVP2,2013-10-12 10:51:00,
2013-10-12 05:56:00,59.1,57.0,29.95,SW,233,4.0,12.0,93,0.08,,,0.08,WUHU216DAVISVP2,2013-10-12 10:56:00,
2013-10-12 06:01:00,59.1,57.1,29.95,SW,230,3.0,9.0,93,0.08,,,0.08,WUHU216DAVISVP2,2013-10-12 11:01:00,
2013-10-12 06:06:00,59.2,57.1,29.96,SW,226,0.0,8.0,93,0.08,,,0.08,WUHU216DAVISVP2,2013-10-12 11:06:00,
2013-10-12 06:11:00,59.2,57.1,29.97,SW,224,0.0,8.0,93,0.06,,,0.08,WUHU216DAVISVP2,2013-10-12 11:11:00,
2013-10-12 06:16:00,59.2,56.9,29.97,SW,224,0.0,8.0,92,0.02,,,0.08,WUHU216DAVISVP2,2013-10-12 11:16:00,
2013-10-12 06:21:00,59.3,56.9,29.97,South,187,6.0,7.0,92,0.02,,,0.08,WUHU216DAVISVP2,2013-10-12 11:21:00,
2013-10-12 06:26:00,59.2,56.9,29.97,SSW,192,2.0,7.0,92,0.00,,,0.08,WUHU216DAVISVP2,2013-10-12 11:26:00,
2013-10-12 06:31:00,59.2,56.8,29.97,SSW,193,2.0,7.0,92,0.00,,,0.08,WUHU216DAVISVP2,2013-10-12 11:31:00,
2013-10-12 06:36:00,59.1,56.7,29.96,SSW,204,0.0,7.0,92,0.00,,,0.08,WUHU216DAVISVP2,2013-10-12 11:36:00,
2013-10-12 06:41:00,59.0,56.7,29.97,SW,214,0.0,6.0,92,0.00,,,0.08,WUHU216DAVISVP2,2013-10-12 11:41:00,
2013-10-12 06:46:00,59.0,56.6,29.97,WSW,237,2.0,7.0,92,0.01,,,0.09,WUHU216DAVISVP2,2013-10-12 11:46:00,
2013-10-12 06:51:00,59.0,56.6,29.99,WSW,241,0.0,7.0,92,0.01,,,0.09,WUHU216DAVISVP2,2013-10-12 11:51:00,
2013-10-12 06:56:00,58.9,56.3,29.98,WSW,241,1.0,7.0,91,0.04,,,0.12,WUHU216DAVISVP2,2013-10-12 11:56:00,
2013-10-12 07:01:00,59.0,56.6,29.98,WSW,245,0.0,7.0,92,0.08,,,0.16,WUHU216DAVISVP2,2013-10-12 12:01:00,
2013-10-12 07:06:00,58.8,56.4,29.98,WSW,245,1.0,3.0,92,0.10,,,0.18,WUHU216DAVISVP2,2013-10-12 12:06:00,
2013-10-12 07:11:00,58.6,56.6,29.98,WSW,245,2.0,3.0,93,0.10,,,0.18,WUHU216DAVISVP2,2013-10-12 12:11:00,
2013-10-12 07:16:00,58.6,56.5,29.97,WSW,245,2.0,4.0,93,0.11,,,0.19,WUHU216DAVISVP2,2013-10-12 12:16:00,
2013-10-12 07:21:00,58.5,56.5,29.98,WSW,245,0.0,4.0,93,0.12,,,0.20,WUHU216DAVISVP2,2013-10-12 12:21:00,
2013-10-12 07:26:00,58.5,56.4,29.98,WSW,245,0.0,4.0,93,0.14,,,0.22,WUHU216DAVISVP2,2013-10-12 12:26:00,
2013-10-12 07:31:00,58.5,56.7,29.97,NW,323,2.0,5.0,94,0.16,,,0.24,WUHU216DAVISVP2,2013-10-12 12:31:00,
2013-10-12 07:36:00,58.5,56.8,29.97,NNW,329,1.0,5.0,94,0.18,,,0.26,WUHU216DAVISVP2,2013-10-12 12:36:00,
2013-10-12 07:41:00,58.5,56.7,29.97,WNW,302,2.0,5.0,94,0.19,,,0.27,WUHU216DAVISVP2,2013-10-12 12:41:00,
2013-10-12 07:46:00,58.5,56.7,29.96,NW,308,4.0,6.0,94,0.20,,,0.29,WUHU216DAVISVP2,2013-10-12 12:46:00,
2013-10-12 07:51:00,58.3,56.6,29.93,NW,304,6.0,13.0,94,0.21,,,0.30,WUHU216DAVISVP2,2013-10-12 12:51:00,
2013-10-12 07:56:00,58.3,56.5,29.92,WNW,301,12.0,13.0,94,0.18,,,0.30,WUHU216DAVISVP2,2013-10-12 12:56:00,
2013-10-12 08:01:00,58.3,56.8,29.93,NW,308,6.0,14.0,95,0.14,,,0.30,WUHU216DAVISVP2,2013-10-12 13:01:00,
2013-10-12 08:06:00,58.1,56.6,29.93,NW,322,10.0,14.0,95,0.12,,,0.30,WUHU216DAVISVP2,2013-10-12 13:06:00,
2013-10-12 08:11:00,57.8,56.4,29.93,NW,312,6.0,14.0,95,0.12,,,0.30,WUHU216DAVISVP2,2013-10-12 13:11:00,
2013-10-12 08:16:00,57.7,56.2,29.93,NW,309,2.0,11.0,95,0.11,,,0.30,WUHU216DAVISVP2,2013-10-12 13:16:00,
2013-10-12 08:21:00,57.4,56.0,29.94,WNW,295,1.0,10.0,95,0.10,,,0.30,WUHU216DAVISVP2,2013-10-12 13:21:00,
2013-10-12 08:26:00,57.4,55.9,29.94,WNW,291,2.0,10.0,95,0.08,,,0.30,WUHU216DAVISVP2,2013-10-12 13:26:00,
2013-10-12 08:31:00,57.2,55.8,29.95,WNW,291,1.0,10.0,95,0.06,,,0.30,WUHU216DAVISVP2,2013-10-12 13:31:00,
2013-10-12 08:36:00,57.3,55.8,29.96,WNW,291,0.0,9.0,95,0.04,,,0.30,WUHU216DAVISVP2,2013-10-12 13:36:00,
2013-10-12 08:41:00,57.2,55.7,29.98,South,169,12.0,12.0,95,0.03,,,0.30,WUHU216DAVISVP2,2013-10-12 13:41:00,
2013-10-12 08:46:00,57.3,55.8,29.98,South,181,2.0,14.0,95,0.01,,,0.30,WUHU216DAVISVP2,2013-10-12 13:46:00,
2013-10-12 08:51:00,57.3,55.8,29.99,ESE,122,2.0,14.0,95,0.00,,,0.30,WUHU216DAVISVP2,2013-10-12 13:51:00,
2013-10-12 08:56:00,57.3,55.8,30.00,SE,130,5.0,14.0,95,0.00,,,0.30,WUHU216DAVISVP2,2013-10-12 13:56:00,
2013-10-12 09:01:00,57.2,55.7,30.00,SE,146,6.0,14.0,95,0.00,,,0.30,WUHU216DAVISVP2,2013-10-12 14:01:00,
2013-10-12 09:06:00,57.1,55.6,30.00,SSE,148,4.0,11.0,95,0.00,,,0.30,WUHU216DAVISVP2,2013-10-12 14:06:00,
2013-10-12 09:11:00,56.8,55.4,30.01,SE,138,8.0,11.0,95,0.00,,,0.30,WUHU216DAVISVP2,2013-10-12 14:11:00,
2013-10-12 09:16:00,56.6,54.8,30.01,SE,140,3.0,11.0,94,0.00,,,0.30,WUHU216DAVISVP2,2013-10-12 14:16:00,
2013-10-12 09:21:00,56.4,54.7,30.01,SSE,154,3.0,11.0,94,0.00,,,0.30,WUHU216DAVISVP2,2013-10-12 14:21:00,
2013-10-12 09:26:00,56.3,54.5,30.01,SSE,150,1.0,10.0,94,0.00,,,0.30,WUHU216DAVISVP2,2013-10-12 14:26:00,
2013-10-12 09:31:00,56.2,54.5,30.02,SSE,150,0.0,9.0,94,0.00,,,0.30,WUHU216DAVISVP2,2013-10-12 14:31:00,
2013-10-12 09:36:00,56.2,54.5,30.02,SSE,148,5.0,9.0,94,0.00,,,0.30,WUHU216DAVISVP2,2013-10-12 14:36:00,
2013-10-12 09:41:00,56.2,54.4,30.02,SSE,148,4.0,6.0,94,0.00,,,0.30,WUHU216DAVISVP2,2013-10-12 14:41:00,
2013-10-12 09:46:00,56.2,54.5,30.02,SSE,154,1.0,6.0,94,0.00,,,0.30,WUHU216DAVISVP2,2013-10-12 14:46:00,
2013-10-12 09:51:00,56.3,54.5,30.02,SSE,151,4.0,6.0,94,0.00,,,0.30,WUHU216DAVISVP2,2013-10-12 14:51:00,
2013-10-12 09:56:00,56.4,54.6,30.02,SSE,151,3.0,6.0,94,0.00,,,0.30,WUHU216DAVISVP2,2013-10-12 14:56:00,
2013-10-12 10:01:00,56.4,54.7,30.03,SSE,152,0.0,6.0,94,0.00,,,0.30,WUHU216DAVISVP2,2013-10-12 15:01:00,
2013-10-12 10:06:00,56.5,54.8,30.03,SSE,152,2.0,5.0,94,0.00,,,0.30,WUHU216DAVISVP2,2013-10-12 15:06:00,
2013-10-12 10:11:00,56.6,54.5,30.03,SE,137,3.0,5.0,93,0.00,,,0.30,WUHU216DAVISVP2,2013-10-12 15:11:00,
2013-10-12 10:16:00,56.8,54.4,30.03,SE,146,3.0,8.0,92,0.00,,,0.30,WUHU216DAVISVP2,2013-10-12 15:16:00,
2013-10-12 10:21:00,56.7,54.4,30.03,SSE,162,5.0,8.0,92,0.00,,,0.30,WUHU216DAVISVP2,2013-10-12 15:21:00,
2013-10-12 10:26:00,56.9,54.9,30.03,SSE,165,2.0,8.0,93,0.00,,,0.30,WUHU216DAVISVP2,2013-10-12 15:26:00,
2013-10-12 10:31:00,56.9,54.3,30.03,SSE,165,4.0,8.0,91,0.00,,,0.30,WUHU216DAVISVP2,2013-10-12 15:31:00,
2013-10-12 10:36:00,56.9,54.3,30.04,South,179,3.0,6.0,91,0.00,,,0.30,WUHU216DAVISVP2,2013-10-12 15:36:00,
2013-10-12 10:41:00,56.9,54.3,30.04,South,185,2.0,6.0,91,0.00,,,0.30,WUHU216DAVISVP2,2013-10-12 15:41:00,
2013-10-12 10:46:00,56.9,54.3,30.04,South,185,2.0,6.0,91,0.00,,,0.30,WUHU216DAVISVP2,2013-10-12 15:46:00,
2013-10-12 10:51:00,56.8,53.9,30.04,SSW,194,2.0,9.0,90,0.00,,,0.30,WUHU216DAVISVP2,2013-10-12 15:51:00,
2013-10-12 10:56:00,56.5,53.6,30.04,SSW,195,3.0,9.0,90,0.00,,,0.30,WUHU216DAVISVP2,2013-10-12 15:56:00,
2013-10-12 11:01:00,56.4,53.5,30.05,SSW,196,0.0,9.0,90,0.00,,,0.30,WUHU216DAVISVP2,2013-10-12 16:01:00,
2013-10-12 11:06:00,56.3,53.4,30.05,SSW,196,4.0,9.0,90,0.00,,,0.30,WUHU216DAVISVP2,2013-10-12 16:06:00,
2013-10-12 11:11:00,56.4,53.5,30.05,SSW,196,0.0,7.0,90,0.00,,,0.30,WUHU216DAVISVP2,2013-10-12 16:11:00,
2013-10-12 11:16:00,56.6,53.3,30.05,SSW,196,2.0,5.0,89,0.00,,,0.30,WUHU216DAVISVP2,2013-10-12 16:16:00,
2013-10-12 11:21:00,56.9,53.3,30.05,South,178,2.0,5.0,88,0.00,,,0.30,WUHU216DAVISVP2,2013-10-12 16:21:00,
2013-10-12 11:26:00,57.2,53.7,30.05,South,179,0.0,6.0,88,0.00,,,0.30,WUHU216DAVISVP2,2013-10-12 16:26:00,
2013-10-12 11:31:00,57.4,53.9,30.05,South,181,2.0,6.0,88,0.00,,,0.30,WUHU216DAVISVP2,2013-10-12 16:31:00,
2013-10-12 11:36:00,57.9,53.7,30.05,South,170,5.0,8.0,86,0.00,,,0.30,WUHU216DAVISVP2,2013-10-12 16:36:00,
2013-10-12 11:41:00,58.0,53.5,30.06,South,174,1.0,8.0,85,0.00,,,0.30,WUHU216DAVISVP2,2013-10-12 16:41:00,
2013-10-12 11:46:00,57.9,53.5,30.06,SE,130,4.0,8.0,85,0.00,,,0.30,WUHU216DAVISVP2,2013-10-12 16:46:00,
2013-10-12 11:51:00,57.9,53.4,30.06,South,172,2.0,10.0,85,0.00,,,0.30,WUHU216DAVISVP2,2013-10-12 16:51:00,
2013-10-12 11:56:00,57.6,53.5,30.06,SSE,168,1.0,10.0,86,0.00,,,0.30,WUHU216DAVISVP2,2013-10-12 16:56:00,
2013-10-12 12:01:00,57.6,53.4,30.06,South,170,3.0,10.0,86,0.00,,,0.30,WUHU216DAVISVP2,2013-10-12 17:01:00,
2013-10-12 12:06:00,57.6,52.8,30.06,South,183,2.0,8.0,84,0.00,,,0.30,WUHU216DAVISVP2,2013-10-12 17:06:00,
2013-10-12 12:11:00,57.7,53.2,30.06,SSE,166,4.0,8.0,85,0.00,,,0.30,WUHU216DAVISVP2,2013-10-12 17:11:00,
2013-10-12 12:16:00,57.7,53.2,30.06,South,191,5.0,8.0,85,0.00,,,0.30,WUHU216DAVISVP2,2013-10-12 17:16:00,
2013-10-12 12:21:00,57.5,53.4,30.07,South,179,4.0,8.0,86,0.00,,,0.30,WUHU216DAVISVP2,2013-10-12 17:21:00,
2013-10-12 12:26:00,57.4,53.2,30.07,South,183,0.0,8.0,86,0.00,,,0.30,WUHU216DAVISVP2,2013-10-12 17:26:00,
2013-10-12 12:31:00,57.5,53.3,30.06,SSW,200,5.0,9.0,86,0.00,,,0.30,WUHU216DAVISVP2,2013-10-12 17:31:00,
2013-10-12 12:36:00,57.5,53.4,30.06,SSW,203,6.0,9.0,86,0.00,,,0.30,WUHU216DAVISVP2,2013-10-12 17:36:00,
2013-10-12 12:41:00,57.4,53.3,30.06,South,187,4.0,9.0,86,0.00,,,0.30,WUHU216DAVISVP2,2013-10-12 17:41:00,
2013-10-12 12:46:00,57.5,53.4,30.07,South,173,1.0,9.0,86,0.00,,,0.30,WUHU216DAVISVP2,2013-10-12 17:46:00,
2013-10-12 12:51:00,57.6,53.4,30.07,South,176,1.0,9.0,86,0.00,,,0.30,WUHU216DAVISVP2,2013-10-12 17:51:00,
2013-10-12 12:56:00,57.7,53.5,30.07,SSE,156,0.0,9.0,86,0.00,,,0.30,WUHU216DAVISVP2,2013-10-12 17:56:00,
2013-10-12 13:01:00,58.0,53.5,30.06,SSE,165,0.0,6.0,85,0.00,,,0.30,WUHU216DAVISVP2,2013-10-12 18:01:00,
2013-10-12 13:06:00,58.3,53.5,30.06,SSE,165,0.0,6.0,84,0.00,,,0.30,WUHU216DAVISVP2,2013-10-12 18:06:00,
2013-10-12 13:11:00,58.6,53.8,30.06,SSE,168,3.0,4.0,84,0.00,,,0.30,WUHU216DAVISVP2,2013-10-12 18:11:00,
2013-10-12 13:16:00,59.0,53.6,30.06,South,174,1.0,5.0,82,0.00,,,0.30,WUHU216DAVISVP2,2013-10-12 18:16:00,
2013-10-12 13:21:00,59.2,53.8,30.06,SSE,162,1.0,6.0,82,0.00,,,0.30,WUHU216DAVISVP2,2013-10-12 18:21:00,
2013-10-12 13:26:00,59.6,54.1,30.06,South,188,5.0,8.0,82,0.00,,,0.30,WUHU216DAVISVP2,2013-10-12 18:26:00,
2013-10-12 13:31:00,59.8,53.3,30.06,SSE,160,3.0,8.0,79,0.00,,,0.30,WUHU216DAVISVP2,2013-10-12 18:31:00,
2013-10-12 13:36:00,60.3,53.5,30.06,SSE,166,4.0,8.0,78,0.00,,,0.30,WUHU216DAVISVP2,2013-10-12 18:36:00,
2013-10-12 13:41:00,60.6,53.8,30.06,SSW,194,9.0,9.0,78,0.00,,,0.30,WUHU216DAVISVP2,2013-10-12 18:41:00,
2013-10-12 13:46:00,60.8,54.0,30.05,South,186,2.0,9.0,78,0.00,,,0.30,WUHU216DAVISVP2,2013-10-12 18:46:00,
2013-10-12 13:51:00,60.9,53.4,30.05,SSW,206,6.0,9.0,76,0.00,,,0.30,WUHU216DAVISVP2,2013-10-12 18:51:00,
2013-10-12 13:56:00,61.4,53.5,30.05,SW,222,5.0,10.0,75,0.00,,,0.30,WUHU216DAVISVP2,2013-10-12 18:56:00,
2013-10-12 14:01:00,61.7,53.8,30.05,SSW,202,5.0,10.0,75,0.00,,,0.30,WUHU216DAVISVP2,2013-10-12 19:01:00,
2013-10-12 14:06:00,62.1,54.2,30.05,SW,217,5.0,10.0,75,0.00,,,0.30,WUHU216DAVISVP2,2013-10-12 19:06:00,
2013-10-12 14:11:00,62.4,53.8,30.05,South,189,3.0,10.0,73,0.00,,,0.30,WUHU216DAVISVP2,2013-10-12 19:11:00,
2013-10-12 14:16:00,62.6,54.7,30.05,WSW,245,4.0,11.0,75,0.00,,,0.30,WUHU216DAVISVP2,2013-10-12 19:16:00,
2013-10-12 14:21:00,62.7,53.7,30.05,WSW,237,3.0,11.0,72,0.00,,,0.30,WUHU216DAVISVP2,2013-10-12 19:21:00,
2013-10-12 14:26:00,62.9,54.6,30.05,WSW,252,7.0,11.0,74,0.00,,,0.30,WUHU216DAVISVP2,2013-10-12 19:26:00,
2013-10-12 14:31:00,62.8,53.8,30.05,SW,230,5.0,12.0,72,0.00,,,0.30,WUHU216DAVISVP2,2013-10-12 19:31:00,
2013-10-12 14:36:00,63.0,53.9,30.05,SW,217,6.0,12.0,72,0.00,,,0.30,WUHU216DAVISVP2,2013-10-12 19:36:00,
2013-10-12 14:41:00,63.3,54.3,30.05,SE,137,2.0,12.0,72,0.00,,,0.30,WUHU216DAVISVP2,2013-10-12 19:41:00,
2013-10-12 14:46:00,64.1,54.3,30.05,SW,226,2.0,12.0,70,0.00,,,0.30,WUHU216DAVISVP2,2013-10-12 19:46:00,
2013-10-12 14:51:00,64.5,54.3,30.05,SSW,204,5.0,10.0,69,0.00,,,0.30,WUHU216DAVISVP2,2013-10-12 19:51:00,
2013-10-12 14:56:00,64.6,54.3,30.05,SW,235,4.0,11.0,69,0.00,,,0.30,WUHU216DAVISVP2,2013-10-12 19:56:00,
2013-10-12 15:01:00,64.6,54.3,30.05,WSW,253,4.0,11.0,69,0.00,,,0.30,WUHU216DAVISVP2,2013-10-12 20:01:00,
2013-10-12 15:06:00,64.7,54.0,30.05,South,178,1.0,11.0,68,0.00,,,0.30,WUHU216DAVISVP2,2013-10-12 20:06:00,
2013-10-12 15:11:00,65.0,53.9,30.05,SW,235,5.0,11.0,67,0.00,,,0.30,WUHU216DAVISVP2,2013-10-12 20:11:00,
2013-10-12 15:16:00,65.1,54.8,30.05,SSW,205,5.0,11.0,69,0.00,,,0.30,WUHU216DAVISVP2,2013-10-12 20:16:00,
2013-10-12 15:21:00,65.5,54.4,30.05,SW,223,7.0,11.0,67,0.00,,,0.30,WUHU216DAVISVP2,2013-10-12 20:21:00,
2013-10-12 15:26:00,65.4,53.9,30.05,SW,229,2.0,11.0,66,0.00,,,0.30,WUHU216DAVISVP2,2013-10-12 20:26:00,
2013-10-12 15:31:00,65.5,54.0,30.05,SW,219,5.0,11.0,66,0.00,,,0.30,WUHU216DAVISVP2,2013-10-12 20:31:00,
2013-10-12 15:36:00,65.7,54.2,30.05,WSW,244,5.0,11.0,66,0.00,,,0.30,WUHU216DAVISVP2,2013-10-12 20:36:00,
2013-10-12 15:41:00,65.7,53.8,30.05,SW,231,4.0,11.0,65,0.00,,,0.30,WUHU216DAVISVP2,2013-10-12 20:41:00,
2013-10-12 15:46:00,65.9,53.6,30.05,SSW,210,2.0,11.0,64,0.00,,,0.30,WUHU216DAVISVP2,2013-10-12 20:46:00,
2013-10-12 15:51:00,66.3,54.3,30.05,WSW,238,6.0,11.0,65,0.00,,,0.30,WUHU216DAVISVP2,2013-10-12 20:51:00,
2013-10-12 15:56:00,66.4,54.4,30.05,SSW,202,6.0,9.0,65,0.00,,,0.30,WUHU216DAVISVP2,2013-10-12 20:56:00,
2013-10-12 16:01:00,66.6,54.2,30.05,SSW,193,9.0,11.0,64,0.00,,,0.30,WUHU216DAVISVP2,2013-10-12 21:01:00,
2013-10-12 16:06:00,66.5,54.2,30.05,WSW,247,8.0,11.0,64,0.00,,,0.30,WUHU216DAVISVP2,2013-10-12 21:06:00,
2013-10-12 16:11:00,66.7,54.3,30.05,SSW,210,9.0,11.0,64,0.00,,,0.30,WUHU216DAVISVP2,2013-10-12 21:11:00,
2013-10-12 16:16:00,66.9,54.5,30.05,SSW,205,7.0,13.0,64,0.00,,,0.30,WUHU216DAVISVP2,2013-10-12 21:16:00,
2013-10-12 16:21:00,66.9,53.7,30.05,SW,220,6.0,13.0,62,0.00,,,0.30,WUHU216DAVISVP2,2013-10-12 21:21:00,
2013-10-12 16:26:00,67.1,53.8,30.05,SSW,210,8.0,13.0,62,0.00,,,0.30,WUHU216DAVISVP2,2013-10-12 21:26:00,
2013-10-12 16:31:00,67.0,53.3,30.05,SW,215,7.0,13.0,61,0.00,,,0.30,WUHU216DAVISVP2,2013-10-12 21:31:00,
2013-10-12 16:36:00,67.2,53.0,30.05,SW,224,5.0,10.0,60,0.00,,,0.30,WUHU216DAVISVP2,2013-10-12 21:36:00,
2013-10-12 16:41:00,67.3,52.2,30.05,SW,215,1.0,10.0,58,0.00,,,0.30,WUHU216DAVISVP2,2013-10-12 21:41:00,
2013-10-12 16:46:00,67.4,53.2,30.05,SW,216,7.0,11.0,60,0.00,,,0.30,WUHU216DAVISVP2,2013-10-12 21:46:00,
2013-10-12 16:51:00,67.4,52.7,30.05,SW,219,7.0,11.0,59,0.00,,,0.30,WUHU216DAVISVP2,2013-10-12 21:51:00,
2013-10-12 16:56:00,67.5,52.8,30.05,SSW,202,7.0,11.0,59,0.00,,,0.30,WUHU216DAVISVP2,2013-10-12 21:56:00,
2013-10-12 17:01:00,67.6,52.9,30.05,SSW,206,9.0,11.0,59,0.00,,,0.30,WUHU216DAVISVP2,2013-10-12 22:01:00,
2013-10-12 17:06:00,67.6,53.0,30.05,SSW,198,3.0,11.0,59,0.00,,,0.30,WUHU216DAVISVP2,2013-10-12 22:06:00,
2013-10-12 17:11:00,67.7,53.0,30.06,SSW,197,9.0,11.0,59,0.00,,,0.30,WUHU216DAVISVP2,2013-10-12 22:11:00,
2013-10-12 17:16:00,67.8,53.1,30.06,South,181,0.0,10.0,59,0.00,,,0.30,WUHU216DAVISVP2,2013-10-12 22:16:00,
2013-10-12 17:21:00,68.0,53.8,30.06,SSW,206,6.0,10.0,60,0.00,,,0.30,WUHU216DAVISVP2,2013-10-12 22:21:00,
2013-10-12 17:26:00,68.1,53.4,30.06,SW,215,2.0,10.0,59,0.00,,,0.30,WUHU216DAVISVP2,2013-10-12 22:26:00,
2013-10-12 17:31:00,68.0,53.3,30.06,SSW,194,3.0,11.0,59,0.00,,,0.30,WUHU216DAVISVP2,2013-10-12 22:31:00,
2013-10-12 17:36:00,68.0,53.7,30.05,SSW,211,5.0,11.0,60,0.00,,,0.30,WUHU216DAVISVP2,2013-10-12 22:36:00,
2013-10-12 17:41:00,68.0,53.8,30.06,SW,224,5.0,11.0,60,0.00,,,0.30,WUHU216DAVISVP2,2013-10-12 22:41:00,
2013-10-12 17:46:00,68.1,54.3,30.06,SSW,207,1.0,11.0,61,0.00,,,0.30,WUHU216DAVISVP2,2013-10-12 22:46:00,
2013-10-12 17:51:00,68.2,54.5,30.06,SW,215,0.0,8.0,61,0.00,,,0.30,WUHU216DAVISVP2,2013-10-12 22:51:00,
2013-10-12 17:56:00,68.3,54.5,30.06,SW,215,2.0,8.0,61,0.00,,,0.30,WUHU216DAVISVP2,2013-10-12 22:56:00,
2013-10-12 18:01:00,68.2,54.4,30.06,SSW,203,7.0,8.0,61,0.00,,,0.30,WUHU216DAVISVP2,2013-10-12 23:01:00,
2013-10-12 18:06:00,67.8,54.5,30.06,SSW,206,4.0,10.0,62,0.00,,,0.30,WUHU216DAVISVP2,2013-10-12 23:06:00,
2013-10-12 18:11:00,67.6,54.3,30.06,SW,218,5.0,10.0,62,0.00,,,0.30,WUHU216DAVISVP2,2013-10-12 23:11:00,
2013-10-12 18:16:00,67.3,54.4,30.07,SW,223,5.0,9.0,63,0.00,,,0.30,WUHU216DAVISVP2,2013-10-12 23:16:00,
2013-10-12 18:21:00,66.9,54.1,30.07,SW,220,5.0,9.0,63,0.00,,,0.30,WUHU216DAVISVP2,2013-10-12 23:21:00,
2013-10-12 18:26:00,66.7,53.9,30.07,SW,220,0.0,7.0,63,0.00,,,0.30,WUHU216DAVISVP2,2013-10-12 23:26:00,
2013-10-12 18:31:00,66.4,54.0,30.07,SW,220,0.0,6.0,64,0.00,,,0.30,WUHU216DAVISVP2,2013-10-12 23:31:00,
2013-10-12 18:36:00,65.9,53.6,30.07,SW,220,0.0,5.0,64,0.00,,,0.30,WUHU216DAVISVP2,2013-10-12 23:36:00,
2013-10-12 18:41:00,65.6,53.7,30.08,SW,220,0.0,5.0,65,0.00,,,0.30,WUHU216DAVISVP2,2013-10-12 23:41:00,
2013-10-12 18:46:00,65.2,53.7,30.08,SW,220,0.0,4.0,66,0.00,,,0.30,WUHU216DAVISVP2,2013-10-12 23:46:00,
2013-10-12 18:51:00,64.8,53.4,30.08,SW,220,0.0,3.0,66,0.00,,,0.30,WUHU216DAVISVP2,2013-10-12 23:51:00,
2013-10-12 18:56:00,64.5,53.4,30.08,SW,220,0.0,3.0,67,0.00,,,0.30,WUHU216DAVISVP2,2013-10-12 23:56:00,
2013-10-12 19:01:00,64.1,53.5,30.08,SW,220,0.0,0.0,68,0.00,,,0.30,WUHU216DAVISVP2,2013-10-13 00:01:00,
2013-10-12 19:06:00,63.7,53.1,30.09,SW,220,0.0,0.0,68,0.00,,,0.30,WUHU216DAVISVP2,2013-10-13 00:06:00,
2013-10-12 19:11:00,63.3,52.7,30.09,SW,220,0.0,0.0,68,0.00,,,0.30,WUHU216DAVISVP2,2013-10-13 00:11:00,
2013-10-12 19:16:00,62.9,52.8,30.09,SW,220,0.0,0.0,69,0.00,,,0.30,WUHU216DAVISVP2,2013-10-13 00:16:00,
2013-10-12 19:21:00,62.6,52.8,30.09,SW,220,0.0,1.0,70,0.00,,,0.30,WUHU216DAVISVP2,2013-10-13 00:21:00,
2013-10-12 19:26:00,62.3,52.5,30.09,SW,220,0.0,2.0,70,0.00,,,0.30,WUHU216DAVISVP2,2013-10-13 00:26:00,
2013-10-12 19:31:00,61.9,52.6,30.09,SW,220,0.0,3.0,71,0.00,,,0.30,WUHU216DAVISVP2,2013-10-13 00:31:00,
2013-10-12 19:36:00,61.6,52.2,30.09,SW,220,0.0,3.0,71,0.00,,,0.30,WUHU216DAVISVP2,2013-10-13 00:36:00,
2013-10-12 19:41:00,61.4,52.4,30.09,SW,220,1.0,3.0,72,0.00,,,0.30,WUHU216DAVISVP2,2013-10-13 00:41:00,
2013-10-12 19:46:00,61.1,52.2,30.10,SW,220,0.0,4.0,72,0.00,,,0.30,WUHU216DAVISVP2,2013-10-13 00:46:00,
2013-10-12 19:51:00,60.9,51.9,30.10,SW,220,0.0,4.0,72,0.00,,,0.30,WUHU216DAVISVP2,2013-10-13 00:51:00,
2013-10-12 19:56:00,60.7,52.1,30.10,SW,220,0.0,4.0,73,0.00,,,0.30,WUHU216DAVISVP2,2013-10-13 00:56:00,
2013-10-12 20:01:00,60.3,52.1,30.10,SW,220,0.0,3.0,74,0.00,,,0.30,WUHU216DAVISVP2,2013-10-13 01:01:00,
2013-10-12 20:06:00,60.1,51.9,30.10,SW,220,0.0,2.0,74,0.00,,,0.30,WUHU216DAVISVP2,2013-10-13 01:06:00,
2013-10-12 20:11:00,59.8,51.9,30.11,SW,220,3.0,3.0,75,0.00,,,0.30,WUHU216DAVISVP2,2013-10-13 01:11:00,
2013-10-12 20:16:00,59.5,51.7,30.11,SW,220,0.0,5.0,75,0.00,,,0.30,WUHU216DAVISVP2,2013-10-13 01:16:00,
2013-10-12 20:21:00,59.4,51.9,30.11,SW,220,1.0,5.0,76,0.00,,,0.30,WUHU216DAVISVP2,2013-10-13 01:21:00,
2013-10-12 20:26:00,59.3,51.8,30.11,SW,220,0.0,5.0,76,0.00,,,0.30,WUHU216DAVISVP2,2013-10-13 01:26:00,
2013-10-12 20:31:00,59.0,51.6,30.12,SW,220,0.0,5.0,76,0.00,,,0.30,WUHU216DAVISVP2,2013-10-13 01:31:00,
2013-10-12 20:36:00,58.8,51.7,30.12,SW,220,0.0,2.0,77,0.00,,,0.30,WUHU216DAVISVP2,2013-10-13 01:36:00,
2013-10-12 20:41:00,58.6,51.5,30.12,SW,220,0.0,2.0,77,0.00,,,0.30,WUHU216DAVISVP2,2013-10-13 01:41:00,
2013-10-12 20:46:00,58.2,51.5,30.12,SW,220,0.0,2.0,78,0.00,,,0.30,WUHU216DAVISVP2,2013-10-13 01:46:00,
2013-10-12 20:51:00,58.0,51.3,30.13,SW,220,0.0,3.0,78,0.00,,,0.30,WUHU216DAVISVP2,2013-10-13 01:51:00,
2013-10-12 20:56:00,57.9,51.1,30.13,SW,220,0.0,3.0,78,0.00,,,0.30,WUHU216DAVISVP2,2013-10-13 01:56:00,
2013-10-12 20:57:00,57.9,51.1,30.13,SW,220,0.0,3.0,78,0.00,,,0.30,WUHU216DAVISVP2,2013-10-13 01:57:00,
2013-10-12 21:02:00,57.6,51.2,30.13,SW,220,0.0,3.0,79,0.00,,,0.30,WUHU216DAVISVP2,2013-10-13 02:02:00,
2013-10-12 21:07:00,57.5,51.1,30.13,SW,220,0.0,3.0,79,0.00,,,0.30,WUHU216DAVISVP2,2013-10-13 02:07:00,
2013-10-12 21:12:00,57.4,51.0,30.14,SW,220,0.0,1.0,79,0.00,,,0.30,WUHU216DAVISVP2,2013-10-13 02:12:00,
2013-10-12 21:17:00,57.0,50.9,30.14,SW,220,0.0,1.0,80,0.00,,,0.30,WUHU216DAVISVP2,2013-10-13 02:17:00,
2013-10-12 21:22:00,56.6,50.9,30.14,SW,220,0.0,0.0,81,0.00,,,0.30,WUHU216DAVISVP2,2013-10-13 02:22:00,
2013-10-12 21:27:00,56.2,50.8,30.14,SW,220,0.0,0.0,82,0.00,,,0.30,WUHU216DAVISVP2,2013-10-13 02:27:00,
2013-10-12 21:32:00,55.8,50.4,30.14,SW,220,0.0,0.0,82,0.00,,,0.30,WUHU216DAVISVP2,2013-10-13 02:32:00,
2013-10-12 21:37:00,55.4,50.4,30.14,SW,220,0.0,0.0,83,0.00,,,0.30,WUHU216DAVISVP2,2013-10-13 02:37:00,
2013-10-12 21:42:00,55.1,50.1,30.14,SW,220,0.0,0.0,83,0.00,,,0.30,WUHU216DAVISVP2,2013-10-13 02:42:00,
2013-10-12 21:47:00,54.8,50.1,30.14,SW,220,0.0,0.0,84,0.00,,,0.30,WUHU216DAVISVP2,2013-10-13 02:47:00,
2013-10-12 21:52:00,54.6,50.2,30.15,SW,220,0.0,0.0,85,0.00,,,0.30,WUHU216DAVISVP2,2013-10-13 02:52:00,
2013-10-12 21:57:00,54.4,49.6,30.15,SW,220,0.0,0.0,84,0.00,,,0.30,WUHU216DAVISVP2,2013-10-13 02:57:00,
2013-10-12 22:02:00,54.0,49.6,30.15,SW,220,0.0,0.0,85,0.00,,,0.30,WUHU216DAVISVP2,2013-10-13 03:02:00,
2013-10-12 22:07:00,53.8,49.7,30.15,SW,220,0.0,0.0,86,0.00,,,0.30,WUHU216DAVISVP2,2013-10-13 03:07:00,
2013-10-12 22:12:00,53.7,49.6,30.15,SW,220,0.0,0.0,86,0.00,,,0.30,WUHU216DAVISVP2,2013-10-13 03:12:00,
2013-10-12 22:17:00,53.7,49.6,30.14,SW,220,0.0,0.0,86,0.00,,,0.30,WUHU216DAVISVP2,2013-10-13 03:17:00,
2013-10-12 22:22:00,53.7,49.6,30.15,SW,220,0.0,0.0,86,0.00,,,0.30,WUHU216DAVISVP2,2013-10-13 03:22:00,
2013-10-12 22:27:00,53.8,49.4,30.15,SW,220,0.0,0.0,85,0.00,,,0.30,WUHU216DAVISVP2,2013-10-13 03:27:00,
2013-10-12 22:32:00,54.0,49.6,30.15,SW,220,0.0,0.0,85,0.00,,,0.30,WUHU216DAVISVP2,2013-10-13 03:32:00,
2013-10-12 22:37:00,54.1,49.7,30.15,SW,220,0.0,0.0,85,0.00,,,0.30,WUHU216DAVISVP2,2013-10-13 03:37:00,
2013-10-12 22:42:00,54.0,49.6,30.15,SW,220,0.0,0.0,85,0.00,,,0.30,WUHU216DAVISVP2,2013-10-13 03:42:00,
2013-10-12 22:47:00,53.9,49.5,30.15,SW,220,0.0,0.0,85,0.00,,,0.30,WUHU216DAVISVP2,2013-10-13 03:47:00,
2013-10-12 22:52:00,53.9,49.5,30.15,SW,220,0.0,0.0,85,0.00,,,0.30,WUHU216DAVISVP2,2013-10-13 03:52:00,
2013-10-12 22:57:00,53.9,49.5,30.15,SW,220,0.0,0.0,85,0.00,,,0.30,WUHU216DAVISVP2,2013-10-13 03:57:00,
2013-10-12 23:01:00,53.9,49.2,30.15,SW,220,0.0,0.0,84,0.00,,,0.30,WUHU216DAVISVP2,2013-10-13 04:01:00,
2013-10-12 23:06:00,53.8,49.1,30.15,SW,220,0.0,0.0,84,0.00,,,0.30,WUHU216DAVISVP2,2013-10-13 04:06:00,
2013-10-12 23:11:00,53.6,48.9,30.15,SW,220,0.0,0.0,84,0.00,,,0.30,WUHU216DAVISVP2,2013-10-13 04:11:00,
2013-10-12 23:16:00,53.4,49.0,30.16,SW,220,0.0,0.0,85,0.00,,,0.30,WUHU216DAVISVP2,2013-10-13 04:16:00,
2013-10-12 23:21:00,53.3,48.9,30.16,SW,220,0.0,0.0,85,0.00,,,0.30,WUHU216DAVISVP2,2013-10-13 04:21:00,
2013-10-12 23:26:00,53.1,48.7,30.16,SW,220,0.0,0.0,85,0.00,,,0.30,WUHU216DAVISVP2,2013-10-13 04:26:00,
2013-10-12 23:31:00,52.9,48.8,30.16,SW,220,0.0,0.0,86,0.00,,,0.30,WUHU216DAVISVP2,2013-10-13 04:31:00,
2013-10-12 23:36:00,52.8,48.7,30.16,SW,220,0.0,4.0,86,0.00,,,0.30,WUHU216DAVISVP2,2013-10-13 04:36:00,
2013-10-12 23:41:00,52.9,48.5,30.16,SW,220,4.0,5.0,85,0.00,,,0.30,WUHU216DAVISVP2,2013-10-13 04:41:00,
2013-10-12 23:46:00,53.1,48.4,30.16,SW,220,3.0,5.0,84,0.00,,,0.30,WUHU216DAVISVP2,2013-10-13 04:46:00,
2013-10-12 23:51:00,53.4,48.3,30.16,SW,220,2.0,6.0,83,0.00,,,0.30,WUHU216DAVISVP2,2013-10-13 04:51:00,
2013-10-12 23:56:00,53.7,48.3,30.16,SW,220,3.0,6.0,82,0.00,,,0.30,WUHU216DAVISVP2,2013-10-13 04:56:00,